Theta_e
313 317 317 316 317 313 313 314 314 314 312 315 316 316 316 316 315 315 316 316 316 316 315 313 311 310 310 312 312 312 312 314 315 316 316 317 316 321 326 328 328 329 331 331
314 315 315 313 314 314 314 315 315 315 312 313 315 316 316 316 316 316 316 316 317 317 316 314 311 309 308 309 310 311 312 313 314 314 315 315 315 315 322 323 324 326 327 328
314 314 313 313 313 314 315 316 315 314 314 312 314 315 316 315 314 314 314 315 315 316 316 316 312 309 308 308 309 310 311 313 313 314 314 309 312 317 319 320 321 322 324 323
314 313 312 313 313 313 314 313 314 314 315 315 313 314 315 315 315 314 315 316 316 316 315 314 313 309 308 308 308 309 310 312 313 313 311 311 312 313 315 317 319 320 320 320
313 313 313 313 313 313 314 312 313 314 316 316 315 315 314 313 315 315 316 318 317 316 314 313 311 309 309 307 308 308 309 311 311 312 311 312 313 315 314 310 316 318 318 318
312 310 312 314 310 312 311 313 313 313 315 317 315 315 314 316 315 316 315 315 313 312 312 310 308 307 307 306 306 307 308 310 310 310 310 312 313 313 308 307 312 314 315 314
313 313 311 311 313 311 313 316 315 317 320 318 314 316 315 315 314 315 316 317 312 311 312 310 308 306 305 305 305 306 308 309 310 308 309 310 312 310 309 312 313 311 311 311
314 314 313 312 314 315 314 315 318 325 317 314 312 316 316 315 314 314 313 313 311 310 311 311 309 306 305 304 305 306 307 308 309 307 308 308 310 308 307 311 312 311 313 313
313 313 310 309 311 313 313 315 313 315 308 316 313 315 315 314 314 314 313 313 313 312 311 311 307 305 304 304 305 306 306 307 308 306 307 307 307 306 306 310 310 310 309 310
313 314 311 310 310 310 312 313 315 315 323 321 315 315 316 317 316 315 314 313 314 313 311 309 306 304 304 304 304 305 306 306 306 305 305 305 304 304 305 307 307 307 306 306
313 313 313 311 313 314 313 314 313 314 317 324 320 317 317 318 316 315 315 313 313 312 312 310 306 303 303 303 304 305 306 306 305 304 304 303 302 304 304 304 304 304 303 304
313 315 318 315 310 309 312 314 314 316 317 315 316 319 312 314 313 313 313 312 311 309 310 308 305 303 303 303 303 305 306 306 304 303 303 302 301 304 302 302 302 302 301 300
313 317 322 321 315 310 312 312 313 314 316 322 323 321 310 310 313 312 313 313 311 309 307 306 304 304 304 303 303 303 304 304 302 302 301 300 299 300 301 301 301 300 298 297
314 316 321 324 320 316 315 314 313 315 319 318 319 318 318 314 314 314 314 313 312 311 308 308 306 305 303 302 303 302 302 302 301 300 299 299 298 297 300 299 299 298 297 296
312 315 316 318 319 314 315 316 314 315 316 318 319 318 317 316 315 315 315 314 312 311 308 307 307 306 303 301 300 299 300 300 300 299 298 298 297 297 297 295 294 293 292 292
312 314 312 315 317 317 318 317 314 315 315 316 316 317 316 316 314 313 314 315 314 314 313 309 306 304 302 300 300 299 298 298 298 298 297 297 296 295 295 294 292 291 291 290
313 314 316 316 315 318 319 319 320 317 315 315 317 317 316 316 315 314 314 314 314 314 313 312 309 307 304 303 300 299 298 297 296 296 296 296 295 294 293 292 291 289 288 287
313 312 313 318 317 321 318 313 317 319 318 317 316 316 316 316 315 313 313 314 313 312 310 309 307 306 304 302 300 298 296 295 294 294 294 294 293 292 292 290 290 288 287 286
312 313 315 317 318 317 315 313 316 317 318 316 317 316 316 316 315 316 314 310 311 309 306 305 302 301 300 299 298 297 294 293 292 292 292 292 291 290 290 288 287 287 286 285
309 312 313 314 315 315 311 310 309 313 317 315 316 317 317 316 317 316 306 304 303 300 299 299 297 296 296 296 296 294 292 291 291 291 291 291 290 290 289 288 287 286 285 284
308 311 313 313 314 312 310 304 310 317 314 301 301 306 310 314 315 310 301 300 298 297 296 293 292 293 292 292 292 291 290 290 290 290 290 290 289 289 288 287 286 285 283 283
306 309 312 313 314 313 302 307 311 307 303 300 301 301 301 304 306 303 301 299 297 296 294 290 290 289 290 291 291 289 289 289 289 288 288 287 287 287 286 286 284 284 283 282
306 308 308 309 310 303 301 303 302 300 301 303 299 298 298 299 300 298 299 297 295 293 290 288 289 287 288 289 289 289 287 288 288 287 287 286 286 285 285 284 283 283 282 282
303 302 306 302 305 304 302 303 300 299 300 301 297 294 294 295 296 294 294 294 293 290 288 287 287 287 287 287 288 288 287 287 287 286 285 285 285 284 283 283 283 283 283 283
300 301 302 302 302 302 302 302 303 301 299 298 295 293 294 294 295 292 291 290 290 288 287 287 287 287 286 286 286 286 286 287 286 286 285 285 284 284 283 283 283 283 283 284
299 299 300 300 300 299 299 298 297 297 298 298 297 296 293 292 294 290 290 289 287 288 286 286 285 284 283 284 285 286 287 287 286 285 285 285 284 284 284 284 284 283 284 284
Wind_Speed
2 7 11 17 11 2 2 3 6 7 3 3 12 20 21 17 16 20 20 20 20 21 21 19 22 25 25 26 27 29 27 25 23 22 21 19 22 30 31 32 31 30 32 34
4 12 15 4 8 7 6 10 13 12 3 6 13 20 21 19 22 20 21 22 23 21 18 19 20 22 27 30 31 29 29 27 27 23 22 17 19 25 31 29 28 29 31 33
14 5 8 8 6 10 11 14 12 10 4 8 11 14 15 10 13 17 21 24 24 25 23 17 18 24 25 29 31 32 31 29 27 24 20 17 18 22 27 30 31 31 31 33
10 5 6 7 8 13 15 13 10 8 4 8 2 10 18 15 17 13 17 18 21 18 17 16 16 20 26 31 30 30 30 30 28 27 25 24 23 20 29 31 30 30 31 32
6 10 12 11 9 14 4 6 7 3 6 6 11 7 7 2 8 15 19 18 15 13 13 14 14 20 21 22 26 28 28 28 27 29 26 25 23 23 20 20 30 30 30 33
1 1 5 3 3 7 13 7 4 2 1 9 10 9 13 7 10 7 8 11 3 4 5 7 7 9 12 14 20 23 27 29 28 28 28 27 25 22 18 21 26 30 30 32
4 7 3 3 7 3 4 8 3 4 5 10 5 9 21 15 13 13 14 12 1 1 1 2 4 7 10 14 17 20 24 27 26 26 27 25 24 22 22 26 29 31 32 33
12 11 14 11 14 10 13 10 6 7 6 8 4 10 6 13 13 17 16 16 9 9 9 6 4 4 8 11 15 18 21 24 24 24 25 24 23 22 22 28 32 31 36 37
7 9 1 2 5 11 7 11 9 6 2 4 11 20 14 11 15 12 15 10 10 8 10 8 3 5 7 10 14 17 18 21 23 24 24 24 24 24 24 29 34 36 37 38
5 7 2 1 3 1 9 10 5 4 6 8 10 11 13 6 11 14 13 11 10 9 7 4 3 5 7 9 11 14 18 20 22 23 24 25 25 24 25 28 32 36 35 37
13 7 3 4 10 16 8 10 3 3 5 4 7 11 4 7 6 10 5 4 4 5 7 4 4 5 6 8 11 15 19 22 23 25 25 24 25 29 29 30 32 34 35 37
8 5 13 16 1 3 9 16 20 7 5 5 5 17 6 3 2 3 2 1 0 2 6 4 3 5 7 9 11 15 18 21 23 25 27 27 26 31 34 33 33 34 34 35
3 5 3 3 2 1 7 9 13 17 2 14 9 20 4 2 2 1 3 2 2 2 2 3 4 7 10 12 14 15 17 19 20 22 24 25 26 31 36 36 36 35 36 37
5 6 9 12 3 6 9 16 18 18 10 23 16 34 20 4 6 4 4 4 5 7 9 8 6 6 10 12 13 15 18 18 20 21 23 25 26 29 35 36 37 37 37 39
4 4 5 18 15 4 3 13 21 24 30 17 32 21 27 19 14 17 16 13 10 11 9 12 12 7 13 14 16 17 19 20 21 22 24 27 28 27 30 32 33 35 36 38
9 4 2 8 14 14 13 11 15 23 26 23 30 28 30 18 10 9 15 15 15 15 15 13 11 12 13 16 19 19 21 22 21 23 25 23 24 28 30 31 31 32 34 35
7 4 3 19 12 12 11 29 23 20 19 21 23 32 24 18 17 22 22 20 16 18 17 14 12 9 12 13 16 17 16 17 22 25 25 27 28 30 31 31 31 30 31 32
8 5 3 8 3 9 4 4 18 23 25 20 23 30 27 19 13 15 19 15 19 15 12 10 6 8 8 9 11 11 14 18 20 23 25 27 28 28 28 30 31 31 30 32
16 13 7 7 11 12 14 5 4 9 16 21 24 27 27 24 11 24 18 14 16 9 4 5 6 7 8 8 9 9 10 12 13 16 20 23 24 23 24 25 25 26 28 29
11 15 13 12 9 17 20 11 4 4 14 6 14 22 23 18 9 17 3 2 3 2 2 5 5 6 6 6 6 9 11 12 11 13 16 19 22 24 25 26 24 23 23 23
2 4 14 17 15 10 18 3 7 12 11 1 5 13 13 11 11 2 4 2 1 2 1 2 1 1 1 1 3 5 6 7 9 11 13 16 18 21 22 22 21 20 20 20
9 8 7 7 11 19 6 4 2 7 7 4 6 6 9 10 10 4 2 2 3 3 2 1 4 4 4 6 8 7 5 5 7 8 9 10 12 14 17 18 20 21 23 24
7 6 8 5 2 1 3 3 6 5 7 10 5 4 8 9 6 4 3 2 1 2 3 4 7 9 7 6 7 11 8 8 8 9 10 10 11 13 15 18 19 18 20 20
5 1 4 7 3 3 12 6 6 5 10 13 6 6 1 5 8 7 5 3 3 2 3 6 11 10 8 7 9 11 9 10 12 12 12 12 12 12 13 12 12 10 11 12
8 4 10 13 16 7 8 6 10 10 10 11 8 6 8 6 5 3 4 3 3 6 3 9 9 10 10 11 12 11 11 11 12 12 12 11 9 10 11 9 10 11 13 17
10 17 12 14 13 4 10 10 6 7 8 10 11 11 6 6 5 4 2 2 3 3 8 10 14 14 11 11 12 11 10 8 13 13 11 9 9 9 10 10 9 8 9 11
Wind_Direction
88 209 209 223 218 206 127 220 259 261 174 253 254 267 272 271 264 263 262 259 256 251 248 237 225 218 214 213 211 212 209 208 205 204 203 209 216 216 219 222 218 219 220 215
167 226 226 105 177 201 223 259 260 281 227 222 272 268 276 269 258 256 261 262 257 257 248 235 225 216 212 212 212 211 211 207 206 207 206 214 206 214 214 216 209 210 215 215
214 185 180 178 177 200 228 235 249 262 306 228 290 269 251 264 259 260 258 257 261 255 257 247 228 220 215 214 212 210 209 207 206 203 198 200 203 208 212 217 217 215 214 219
238 188 166 176 209 205 239 213 237 254 282 276 238 287 281 270 266 256 259 248 251 260 257 257 239 222 217 216 213 212 209 206 205 200 201 203 203 200 210 213 212 213 213 214
203 184 196 210 221 185 232 143 181 187 235 315 238 264 249 173 260 253 259 261 267 266 260 255 239 236 227 214 210 210 209 207 206 204 206 205 207 210 213 207 211 210 212 217
285 4 199 212 91 173 139 102 78 89 217 262 244 220 274 207 233 254 253 265 274 266 270 256 239 231 223 207 208 207 207 209 207 207 208 208 209 206 199 202 206 208 209 207
179 210 186 171 112 85 195 159 217 232 198 251 96 210 251 286 249 248 265 269 195 240 213 235 222 204 202 197 200 204 207 211 209 209 209 210 213 211 212 211 211 208 210 211
208 234 186 188 215 178 194 199 204 225 228 276 108 237 262 242 270 246 264 277 281 267 272 257 258 226 204 196 197 200 204 209 208 207 209 209 210 212 212 218 218 217 217 215
190 240 218 235 202 187 173 213 250 268 124 279 255 265 259 233 250 252 246 249 268 255 255 254 211 208 204 198 199 202 204 210 209 209 209 209 207 208 211 219 224 224 218 218
209 259 164 109 179 202 211 145 170 213 224 241 256 264 254 237 240 247 254 252 252 235 237 227 204 198 198 199 202 203 205 207 209 211 211 209 207 210 217 219 221 223 222 218
216 228 136 138 210 191 179 210 209 223 224 241 271 260 178 235 278 267 278 273 286 250 220 197 184 199 195 202 201 207 209 204 205 207 209 210 210 215 219 221 225 226 224 222
201 236 236 220 109 301 237 222 203 206 198 239 275 264 142 87 14 302 220 270 277 218 182 181 190 196 201 209 213 216 217 213 208 205 204 207 209 215 221 223 225 225 225 221
208 208 232 236 213 195 222 204 218 231 31 235 226 259 74 127 244 316 225 272 293 142 213 224 210 220 215 214 216 222 224 227 218 205 205 208 207 210 218 222 223 223 219 217
356 209 219 229 225 150 205 213 207 199 216 240 231 258 253 222 218 216 264 278 272 225 221 234 245 244 242 239 232 228 230 223 218 210 209 209 209 210 215 220 223 223 219 216
168 269 275 273 293 288 245 219 209 210 228 228 250 251 261 252 237 268 286 276 251 257 237 240 241 243 247 236 239 235 236 224 214 213 214 214 212 215 215 214 218 220 219 218
175 239 334 301 276 242 254 259 240 223 232 235 249 255 257 257 259 258 252 259 274 280 273 252 240 225 228 228 233 230 226 222 215 216 215 214 212 213 217 218 216 220 221 220
188 198 204 269 256 236 244 237 234 236 234 232 243 248 266 267 254 253 260 263 266 265 266 271 260 244 241 247 249 240 237 224 216 215 217 215 213 214 215 218 219 214 213 214
234 208 185 264 194 237 254 329 236 231 240 240 250 260 266 270 275 265 257 259 257 260 258 255 265 270 271 274 267 259 247 232 226 220 218 218 215 210 207 210 215 213 211 211
226 227 239 245 244 287 296 222 179 200 247 241 241 253 261 265 274 272 263 236 257 252 232 245 258 271 276 276 271 255 237 225 216 217 218 217 215 205 201 201 205 208 210 208
231 233 234 242 245 255 262 256 225 188 264 189 218 242 253 259 242 262 126 205 234 246 284 286 284 281 290 289 236 197 197 203 210 217 222 224 221 218 210 208 204 204 207 204
222 208 231 239 246 252 265 152 150 216 267 44 317 299 310 272 244 300 149 195 242 248 227 268 286 30 314 181 172 159 177 206 217 215 218 219 219 216 217 206 199 199 194 196
259 253 232 236 234 242 15 90 275 329 318 300 298 312 308 300 299 277 237 193 219 214 171 142 131 117 115 125 138 132 139 175 173 176 191 203 206 200 200 200 190 193 192 190
247 249 263 268 322 123 72 35 261 225 276 295 269 270 301 322 310 310 291 254 216 199 147 133 131 116 94 97 129 127 127 140 141 151 154 167 176 182 188 188 186 178 184 178
233 194 226 352 187 243 284 250 249 240 257 277 266 272 283 304 322 312 320 308 294 280 134 139 130 111 99 98 113 122 125 137 141 139 143 153 159 158 168 171 173 171 180 188
244 176 254 265 266 276 245 218 247 265 259 264 267 238 247 183 230 273 311 320 333 307 194 153 132 122 112 116 115 121 134 145 138 137 143 147 150 148 155 166 179 189 204 207
222 238 239 251 257 222 271 285 200 241 255 247 241 240 209 227 216 158 227 283 273 215 265 147 138 125 114 116 115 121 126 144 142 142 144 146 148 152 152 154 150 199 224 219